When you browse on this site, cookies collect data to enhance your experience and personalize the content and advertising you see.
Visit our Privacy Policy to learn more. By continuing to use the site, you agree to this use of cookies and data.
  • In Österreich
  • Länderverzeichnis
  • Für 7 Tage
  • Wassertemperatur
  • Wetterkarte
  • News
  • Widgets
  • user-avatar
    Anmelden

    Stündliche Wetter Zas'ky

    Heute, 22 August, Donnerstag

    Zeit Temperatur Niederschläge Wind Luftdruck Luftfeuchtigkeit
    00:00 +20°C° 0 mm 4 m/S 751 mmHg 84%
    01:00 +19°C° 0 mm 4 m/S 751 mmHg 86%
    02:00 +16°C° 0 mm 5 m/S 752 mmHg 88%
    03:00 +16°C° 0 mm 5 m/S 752 mmHg 88%
    04:00 +16°C° 0 mm 5 m/S 752 mmHg 87%
    05:00 +16°C° 0 mm 5 m/S 752 mmHg 87%
    06:00 +16°C° 0.1 mm 5 m/S 752 mmHg 85%
    07:00 +16°C° 0.1 mm 5 m/S 753 mmHg 84%
    08:00 +16°C° 0 mm 5 m/S 753 mmHg 81%
    09:00 +19°C° 0 mm 4 m/S 754 mmHg 76%
    10:00 +20°C° 0 mm 4 m/S 754 mmHg 71%
    11:00 +21°C° 0 mm 4 m/S 754 mmHg 66%
    12:00 +22°C° 0 mm 4 m/S 754 mmHg 63%
    13:00 +23°C° 0 mm 4 m/S 754 mmHg 59%
    14:00 +25°C° 0 mm 4 m/S 754 mmHg 56%
    15:00 +25°C° 0 mm 4 m/S 754 mmHg 57%
    16:00 +23°C° 0 mm 4 m/S 754 mmHg 58%
    17:00 +23°C° 0 mm 4 m/S 754 mmHg 59%
    18:00 +22°C° 0 mm 4 m/S 754 mmHg 64%
    19:00 +20°C° 0 mm 3 m/S 754 mmHg 69%
    20:00 +18°C° 0 mm 3 m/S 754 mmHg 75%
    21:00 +18°C° 0 mm 3 m/S 754 mmHg 78%
    22:00 +17°C° 0 mm 2 m/S 755 mmHg 81%
    23:00 +16°C° 0 mm 2 m/S 755 mmHg 84%

    Morgen, 23 August, Freitag

    Zeit Temperatur Niederschläge Wind Luftdruck Luftfeuchtigkeit
    00:00 +16°C° 0 mm 2 m/S 755 mmHg 86%
    01:00 +15°C° 0 mm 2 m/S 755 mmHg 89%
    02:00 +15°C° 0 mm 2 m/S 755 mmHg 92%
    03:00 +15°C° 0 mm 2 m/S 755 mmHg 91%
    04:00 +14°C° 0 mm 2 m/S 755 mmHg 91%
    05:00 +14°C° 0 mm 2 m/S 755 mmHg 91%
    06:00 +15°C° 0 mm 2 m/S 755 mmHg 86%
    07:00 +16°C° 0 mm 3 m/S 755 mmHg 80%
    08:00 +17°C° 0 mm 3 m/S 755 mmHg 75%
    09:00 +19°C° 0 mm 3 m/S 755 mmHg 67%
    10:00 +20°C° 0 mm 3 m/S 755 mmHg 60%
    11:00 +22°C° 0 mm 3 m/S 756 mmHg 53%
    12:00 +24°C° 0 mm 3 m/S 755 mmHg 49%
    13:00 +25°C° 0 mm 3 m/S 755 mmHg 44%
    14:00 +26°C° 0 mm 3 m/S 755 mmHg 40%
    15:00 +25°C° 0 mm 3 m/S 755 mmHg 42%
    16:00 +25°C° 0 mm 2 m/S 755 mmHg 44%
    17:00 +25°C° 0 mm 2 m/S 755 mmHg 46%
    18:00 +23°C° 0 mm 2 m/S 755 mmHg 52%
    19:00 +19°C° 0 mm 2 m/S 755 mmHg 59%
    20:00 +17°C° 0 mm 2 m/S 755 mmHg 65%
    21:00 +16°C° 0 mm 2 m/S 755 mmHg 68%
    22:00 +16°C° 0 mm 1 m/S 755 mmHg 71%
    23:00 +15°C° 0 mm 1 m/S 755 mmHg 74%

    übermorgen, 24 August, Samstag

    Zeit Temperatur Niederschläge Wind Luftdruck Luftfeuchtigkeit
    00:00 +14°C° 0 mm 1 m/S 755 mmHg 76%
    01:00 +14°C° 0 mm 1 m/S 755 mmHg 78%
    02:00 +13°C° 0 mm 1 m/S 755 mmHg 80%
    03:00 +13°C° 0 mm 1 m/S 755 mmHg 82%
    04:00 +12°C° 0 mm 1 m/S 755 mmHg 84%
    05:00 +12°C° 0 mm 1 m/S 755 mmHg 86%
    06:00 +14°C° 0 mm 1 m/S 755 mmHg 79%
    07:00 +16°C° 0 mm 1 m/S 755 mmHg 72%
    08:00 +18°C° 0 mm 2 m/S 755 mmHg 66%
    09:00 +20°C° 0 mm 2 m/S 755 mmHg 58%
    10:00 +21°C° 0 mm 2 m/S 755 mmHg 51%
    11:00 +24°C° 0 mm 2 m/S 755 mmHg 43%
    12:00 +25°C° 0 mm 2 m/S 755 mmHg 40%
    13:00 +26°C° 0 mm 1 m/S 754 mmHg 37%
    14:00 +27°C° 0 mm 1 m/S 754 mmHg 33%
    15:00 +26°C° 0 mm 1 m/S 754 mmHg 36%
    16:00 +26°C° 0 mm 1 m/S 754 mmHg 38%
    17:00 +26°C° 0 mm 1 m/S 753 mmHg 41%
    18:00 +23°C° 0 mm 1 m/S 753 mmHg 47%
    19:00 +21°C° 0 mm 1 m/S 753 mmHg 53%
    20:00 +19°C° 0 mm 1 m/S 754 mmHg 58%
    21:00 +18°C° 0 mm 1 m/S 754 mmHg 61%
    22:00 +16°C° 0 mm 1 m/S 754 mmHg 64%
    23:00 +16°C° 0 mm 1 m/S 754 mmHg 67%

    25 August, Sonntag

    Zeit Temperatur Niederschläge Wind Luftdruck Luftfeuchtigkeit
    00:00 +15°C° 0 mm 1 m/S 754 mmHg 69%
    01:00 +15°C° 0 mm 1 m/S 754 mmHg 72%
    02:00 +14°C° 0 mm 1 m/S 754 mmHg 74%
    03:00 +14°C° 0 mm 1 m/S 753 mmHg 76%
    04:00 +14°C° 0 mm 1 m/S 753 mmHg 77%
    05:00 +13°C° 0 mm 1 m/S 753 mmHg 78%
    06:00 +15°C° 0 mm 1 m/S 754 mmHg 73%
    07:00 +18°C° 0 mm 1 m/S 754 mmHg 67%
    08:00 +20°C° 0 mm 1 m/S 754 mmHg 61%
    09:00 +22°C° 0 mm 1 m/S 754 mmHg 56%
    10:00 +23°C° 0 mm 2 m/S 754 mmHg 50%
    11:00 +25°C° 0 mm 2 m/S 754 mmHg 45%
    12:00 +26°C° 0 mm 2 m/S 754 mmHg 42%
    13:00 +26°C° 0 mm 2 m/S 754 mmHg 39%
    14:00 +27°C° 0 mm 2 m/S 754 mmHg 37%
    15:00 +27°C° 0 mm 2 m/S 753 mmHg 40%
    16:00 +27°C° 0 mm 2 m/S 753 mmHg 43%
    17:00 +26°C° 0 mm 1 m/S 753 mmHg 46%
    18:00 +24°C° 0 mm 1 m/S 753 mmHg 52%
    19:00 +22°C° 0 mm 1 m/S 753 mmHg 57%
    20:00 +20°C° 0 mm 1 m/S 753 mmHg 63%
    21:00 +19°C° 0 mm 1 m/S 754 mmHg 69%
    22:00 +18°C° 0 mm 2 m/S 754 mmHg 75%
    23:00 +17°C° 0 mm 2 m/S 754 mmHg 80%

    26 August, Montag

    Zeit Temperatur Niederschläge Wind Luftdruck Luftfeuchtigkeit
    00:00 +17°C° 0 mm 2 m/S 754 mmHg 85%
    01:00 +16°C° 0 mm 2 m/S 754 mmHg 89%
    02:00 +16°C° 0 mm 2 m/S 754 mmHg 93%
    03:00 +16°C° 0 mm 2 m/S 754 mmHg 94%
    04:00 +16°C° 0 mm 2 m/S 754 mmHg 94%
    05:00 +15°C° 0 mm 2 m/S 754 mmHg 95%
    06:00 +17°C° 0 mm 2 m/S 754 mmHg 88%
    07:00 +18°C° 0 mm 2 m/S 754 mmHg 82%
    08:00 +20°C° 0 mm 2 m/S 754 mmHg 75%
    09:00 +21°C° 0 mm 2 m/S 754 mmHg 69%
    10:00 +24°C° 0 mm 2 m/S 755 mmHg 63%
    11:00 +26°C° 0 mm 2 m/S 755 mmHg 57%
    12:00 +26°C° 0 mm 2 m/S 754 mmHg 54%
    13:00 +27°C° 0 mm 3 m/S 754 mmHg 51%
    14:00 +28°C° 0 mm 3 m/S 754 mmHg 47%
    15:00 +27°C° 0 mm 2 m/S 753 mmHg 49%
    16:00 +27°C° 0 mm 2 m/S 753 mmHg 51%
    17:00 +26°C° 0 mm 2 m/S 753 mmHg 53%
    18:00 +24°C° 0 mm 2 m/S 753 mmHg 58%
    19:00 +23°C° 0 mm 2 m/S 753 mmHg 63%
    20:00 +20°C° 0 mm 2 m/S 753 mmHg 68%
    21:00 +19°C° 0 mm 2 m/S 753 mmHg 68%
    22:00 +18°C° 0 mm 2 m/S 753 mmHg 68%
    23:00 +17°C° 0 mm 2 m/S 753 mmHg 68%

    27 August, Dienstag

    Zeit Temperatur Niederschläge Wind Luftdruck Luftfeuchtigkeit
    00:00 +17°C° 0 mm 2 m/S 753 mmHg 68%
    01:00 +16°C° 0 mm 2 m/S 752 mmHg 69%
    02:00 +15°C° 0 mm 2 m/S 752 mmHg 70%
    03:00 +15°C° 0 mm 1 m/S 752 mmHg 71%
    04:00 +15°C° 0 mm 1 m/S 752 mmHg 73%
    05:00 +14°C° 0 mm 1 m/S 752 mmHg 74%
    06:00 +16°C° 0 mm 1 m/S 752 mmHg 69%
    07:00 +19°C° 0 mm 1 m/S 752 mmHg 64%
    08:00 +21°C° 0 mm 1 m/S 752 mmHg 59%
    09:00 +22°C° 0 mm 1 m/S 752 mmHg 53%
    10:00 +24°C° 0 mm 1 m/S 752 mmHg 48%
    11:00 +26°C° 0 mm 1 m/S 752 mmHg 43%
    12:00 +27°C° 0 mm 1 m/S 751 mmHg 41%
    13:00 +28°C° 0 mm 1 m/S 751 mmHg 39%
    14:00 +28°C° 0 mm 1 m/S 751 mmHg 37%
    15:00 +28°C° 0 mm 1 m/S 750 mmHg 39%
    16:00 +27°C° 0 mm 1 m/S 750 mmHg 41%
    17:00 +27°C° 0 mm 1 m/S 750 mmHg 43%
    18:00 +25°C° 0 mm 1 m/S 750 mmHg 49%
    19:00 +23°C° 0 mm 1 m/S 750 mmHg 55%
    20:00 +20°C° 0 mm 1 m/S 750 mmHg 61%
    21:00 +20°C° 0 mm 1 m/S 750 mmHg 64%
    22:00 +19°C° 0 mm 1 m/S 750 mmHg 67%
    23:00 +16°C° 0 mm 0 m/S 750 mmHg 70%
    Mehr zeigen